Skip Page Navigation
NASA JPL Caltech
NASA Logo - Jet Propulsion Laboratory + View the NASA Portal
+ Center for Near-Earth Object Studies
JPL Home Earth Solar System Stars & Galaxies Technology
JPL Solar System Dynamics
BODIES ORBITS EPHEMERIDES TOOLS PHYSICAL DATA DISCOVERY FAQ SITE MAP
IMPORTANT: The SSD Announcement email list is now available. Major changes are coming in the near future, including possible hostname and/or URL changes. To be notified of such changes, subscribe to this email list.

Please visit this page for more details.


JPL Small-Body Database Browser
Search: [ help ]  
(2014 BS43)
Classification: Apollo [NEO]          SPK-ID: 3660064
Ephemeris | Orbit Diagram | Orbital Elements | Mission Design | Physical Parameters | Close-Approach Data ]

[ hide orbit diagram ]

For accurate long-term ephemerides, please instead use our Horizons system.This orbit viewer was implemented using two-body methods, and hence should not be used for determining accurate long-term trajectories (over several years or decades) or planetary encounter circumstances.


[ revert to old Java-based viewer ]

Orbital Elements at Epoch 2456689.5 (2014-Feb-01.0) TDB
Reference: JPL 12 (heliocentric ecliptic J2000)
 Element Value Uncertainty (1-sigma)   Units 
e .549589264267357 0.0014228  
a 1.367454679134942 0.0051971 au
q .6159162681102145 0.00039525 au
i 41.20275279026544 0.13675 deg
node 127.864932945701 0.010963 deg
peri 115.3376220536471 0.15361 deg
M 315.5656687537893 0.30847 deg
tp 2456761.591487530453
(2014-Apr-14.09148753)
0.089491 TDB
period 584.0739532492972
1.60
3.3297
0.009116
d
yr
n .6163603050559987 0.0035138 deg/d
Q 2.11899309015967 0.0080533 au
  Orbit Determination Parameters
   # obs. used (total)      65  
   data-arc span      17 days  
   first obs. used      2014-01-28  
   last obs. used      2014-02-14  
   planetary ephem.      DE431  
   SB-pert. ephem.      SB431-N16  
   condition code      8  
   norm. resid. RMS      .48  
   source      ORB  
   producer      Otto Matic  
   solution date      2017-Apr-06 08:42:41  

Additional Information
 Earth MOID = .177168 au 
 Jupiter MOID = 3.48435 au 
 T_jup = 4.450 
[ show covariance matrix ]

Ephemeris | Orbit Diagram | Orbital Elements | Mission Design | Physical Parameters | Close-Approach Data ]

Physical Parameter Table
Parameter Symbol Value Units Sigma Reference Notes
absolute magnitude H 21.3   n/a E2014D09  

[ show close-approach data ]
Ephemeris | Orbit Diagram | Orbital Elements | Mission Design | Physical Parameters | Close-Approach Data ]
ABOUT SSD CREDITS/AWARDS PRIVACY/COPYRIGHT GLOSSARY LINKS
FirstGov
(server date/time)  
NASA Home Page
Site Manager:   Ryan S. Park
Webmaster  Alan B. Chamberlin